Retour au catalogue

CZ-6A DEB

ActifSSO
NORAD 54499·DEBRIS·🇨🇳 China

Lancé Nov 11, 2022 depuis Taiyuan Satellite Launch Center

Loading…

Prochains Passages (prochaines 24 heures)

TLE

FraisSource: Space-Track

Époque: Sep 14, 2026, 14:26 UTC

1 54499U 22151JB  26257.60194866  .00000197  00000-0  61788-4 0  9995
2 54499  98.5720 311.3844 0134184  24.3160 336.4285 14.46578428202335

Suivez CZ-6A DEB en temps réel avec AllMySat

Download on the App Store